O3b FM14

operational
NORAD ID: 43233 Int'l Des: 2018-024 Owner: O3BS Country: UK
MEOCIRCULAR

关于 O3b FM14

正在加载描述...

实时位置

正在加载3D地球...

即将过境

高度历史

Altitude vs Time

uPlot chart will show altitude changes over time

两行轨道根数

1 43233U 18024C 26061.04460583 -.00000029 00000-0 00000+0 0 9996
2 43233 0.0432 1.2261 0002846 340.1185 18.6375 5.00115615145587
Epoch: Mar 2, 2026 • Age: 26 hours

当前状态

高度 8065.8 km
速度 5.25 km/s
星下点 0.04°N, 102.69°W
发射日期 Mar 9, 2018
运行时间 7.9 years
类型 other

技术详情

分类 Payload
质量 700.00 kg
干质量 500.00 kg
总质量 700.00 kg
长度 4.00 m
直径 2.00 m
跨度 12.00 m
形状 Box trap+2 pan
制造商 THALR
平台类型 Prisma
阶段状态 Renamed
所有者/国家 O3BS/UK

大型星座

Loading constellations...